EHI
0 0 0 0 0 0 0 0 0 0 0 0 0 0 0 0 0 0 0 0 0 0 0 0 0 0 0 0 0 0 0 0 0 0 0 0 0 0 0 0 0 0 0 0
0 0 0 0 0 0 0 0 0 0 0 0 0 0 0 0 0 0 0 0 0 0 0 0 0 0 0 0 0 0 0 0 0 0 0 0 0 0 0 0 0 0 0 0
0 0 0 0 0 0 0 0 0 0 0 0 0 0 0 0 0 0 0 0 0 0 0 0 0 0 0 0 0 0 0 0 0 0 0 0 0 0 0 0 0 0 0 0
0 0 0 0 0 0 0 0 0 0 0 0 0 0 0 0 0 0 0 0 0 0 0 0 0 0 0 0 0 0 0 0 0 0 0 0 0 0 0 0 0 0 0 0
0 0 0 0 0 0 0 0 0 0 0 0 0 0 0 0 0 0 0 0 0 0 0 0 0 0 0 0 0 0 0 0 0 0 0 0 0 0 0 0 0 0 0 0
0 0 0 0 0 0 0 0 0 0 0 0 0 0 0 0 0 0 0 0 0 0 0 0 0 0 0 0 0 0 0 0 0 0 0 0 0 0 0 0 0 0 0 0
0 0 0 0 0 0 0 0 0 0 0 0 0 0 0 0 0 0 0 0 0 0 0 0 0 0 0 0 0 0 0 0 0 0 0 0 0 0 0 0 0 0 0 0
0 0 0 0 0 0 0 0 0 0 0 0 0 0 0 0 0 0 0 0 0 0 0 0 0 0 0 0 0 0 0 0 0 0 0 0 0 0 0 0 0 0 0 0
0 0 0 0 0 0 0 0 0 0 0 0 0 0 0 0 0 0 0 0 0 0 0 0 0 0 0 0 0 0 0 0 0 0 0 0 0 0 0 0 0 0 0 0
0 0 0 0 0 0 0 0 0 0 0 0 0 0 0 0 0 0 0 0 0 0 0 0 0 0 0 0 0 0 0 0 0 0 0 0 0 0 0 0 0 0 0 0
0 0 0 0 0 0 0 0 0 0 0 0 0 0 0 0 0 0 0 0 0 0 0 0 0 0 0 0 0 0 0 0 0 0 0 0 0 0 0 0 0 0 0 0
0 0 0 0 0 0 0 0 0 0 0 0 0 0 0 0 0 0 0 0 0 0 0 0 0 0 0 0 0 0 0 0 0 0 0 0 0 0 0 0 0 0 0 0
0 0 0 0 0 0 0 0 0 0 0 0 0 0 0 0 0 0 0 0 0 0 0 0 0 0 0 0 0 0 0 0 0 0 0 0 0 0 0 0 0 0 0 0
0 0 0 0 0 0 0 0 0 0 0 0 0 0 0 0 0 0 0 0 0 0 0 0 0 0 0 0 0 0 0 0 0 0 0 0 0 0 0 0 0 0 0 0
0 0 0 0 0 0 0 0 0 0 0 0 0 0 0 0 0 0 0 0 0 0 0 0 0 0 0 0 0 0 0 0 0 0 0 0 0 0 0 0 0 0 0 0
0 0 0 0 0 0 0 0 0 0 0 0 0 0 0 0 0 0 0 0 0 0 0 0 0 0 0 0 0 0 0 0 0 0 0 0 0 0 0 0 0 0 0 0
0 0 0 0 0 0 0 0 0 0 0 0 0 0 0 0 0 0 0 0 0 0 0 0 0 0 0 0 0 0 0 0 0 0 0 0 0 0 0 0 0 0 0 0
0 0 0 0 0 0 0 0 0 0 0 0 0 0 0 0 0 0 0 0 0 0 0 0 0 0 0 0 0 0 0 0 0 0 0 0 0 0 0 0 0 0 0 0
0 0 0 0 0 0 0 0 0 0 0 0 0 0 0 0 0 0 0 0 0 0 0 0 0 0 0 0 0 0 0 0 0 0 0 0 0 0 0 0 0 0 0 0
0 0 0 0 0 0 0 0 0 0 0 0 0 0 0 0 0 0 0 0 0 0 0 0 0 0 0 0 0 0 0 0 0 0 0 0 0 0 0 0 0 0 0 0
0 0 0 0 0 0 0 0 0 0 0 0 0 0 0 0 0 0 0 0 0 0 0 0 0 0 0 0 0 0 0 0 0 0 0 0 0 0 0 0 0 0 0 0
0 0 0 0 0 0 0 0 0 0 0 0 0 0 0 0 0 0 0 0 0 0 0 0 0 0 0 0 0 0 0 0 0 0 0 0 0 0 0 0 0 0 0 0
0 0 0 0 0 0 0 0 0 0 0 0 0 0 0 0 0 0 0 0 0 0 0 0 0 0 0 0 0 0 0 0 0 0 0 0 0 0 0 0 0 0 0 0
0 0 0 0 0 0 0 0 0 0 0 0 0 0 0 0 0 0 0 0 0 0 0 0 0 0 0 0 0 0 0 0 0 0 0 0 0 0 0 0 0 0 0 0
0 0 0 0 0 0 0 0 0 0 0 0 0 0 0 0 0 0 0 0 0 0 0 0 0 0 0 0 0 0 0 0 0 0 0 0 0 0 0 0 0 0 0 0
0 0 0 0 0 0 0 0 0 0 0 0 0 0 0 0 0 0 0 0 0 0 0 0 0 0 0 0 0 0 0 0 0 0 0 0 0 0 0 0 0 0 0 0
0 0 0 0 0 0 0 0 0 0 0 0 0 0 0 0 0 0 0 0 0 0 0 0 0 0 0 0 0 0 0 0 0 0 0 0 0 0 0 0 0 0 0 0
Wind_Speed
10 9 7 10 11 12 14 13 12 12 14 17 14 14 14 13 12 12 11 10 11 11 10 10 9 8 7 7 7 6 5 5 5 5 4 3 3 3 3 3 3 4 5 5
8 8 10 14 16 17 17 17 19 19 20 16 14 12 11 11 10 10 10 10 10 10 10 9 9 8 7 7 7 6 5 5 5 5 4 2 2 2 3 3 4 4 5 5
6 4 7 13 14 16 14 13 13 16 15 12 11 10 10 9 9 10 10 10 10 10 9 9 8 7 7 7 7 5 4 5 5 5 4 3 2 2 3 3 3 4 4 4
5 4 10 5 2 8 12 14 15 14 13 12 11 10 10 9 9 10 10 9 9 9 9 8 7 7 7 7 6 5 4 5 5 5 5 5 3 3 4 3 3 4 4 4
4 7 12 8 5 7 9 10 12 14 14 12 10 9 8 7 8 9 10 9 9 9 8 8 7 7 7 6 6 6 5 5 5 5 5 5 5 4 4 4 4 4 4 4
6 7 9 3 4 5 4 8 6 9 10 9 6 7 7 7 8 9 9 8 8 8 8 7 7 7 6 6 6 6 6 5 5 5 5 5 5 5 5 4 4 4 4 4
12 11 11 3 6 7 6 4 2 6 7 6 6 7 8 8 8 8 9 8 8 7 7 7 7 6 6 6 6 7 6 6 5 5 5 5 5 5 5 5 5 5 5 4
10 11 11 7 10 10 6 1 2 4 5 6 8 9 9 9 9 9 9 8 8 7 7 7 6 6 7 7 7 7 6 6 6 5 5 4 5 5 5 5 5 5 4 4
11 10 2 10 9 6 3 3 4 4 5 6 8 9 9 9 9 9 9 8 7 7 7 7 6 6 7 7 7 6 6 6 6 5 5 5 5 5 5 4 3 3 3 3
10 12 8 8 8 7 6 7 6 6 6 7 9 10 10 9 8 9 8 7 6 7 7 7 6 6 6 6 6 6 6 6 5 5 5 5 4 4 4 4 4 3 3 3
12 10 7 9 10 9 8 7 7 7 7 8 9 9 9 9 8 8 7 7 6 7 7 7 7 6 6 6 6 6 6 6 6 5 5 5 4 4 5 5 4 4 4 4
10 8 7 6 6 7 8 9 8 7 8 8 8 9 9 8 8 7 7 7 6 7 7 7 6 6 6 5 6 6 5 6 5 4 4 4 4 5 5 6 7 7 7 6
8 5 6 6 5 6 7 7 6 7 8 8 7 7 7 7 7 7 7 7 7 7 7 7 7 6 6 5 5 6 6 6 5 5 5 4 4 5 5 5 5 6 6 7
8 6 7 7 5 5 5 5 5 5 5 5 6 5 6 6 7 7 7 7 7 7 7 7 7 6 6 5 5 6 6 6 5 5 5 5 5 5 5 5 5 4 5 5
9 8 7 5 4 4 3 3 4 4 4 4 4 5 5 6 7 7 7 6 6 7 7 6 6 6 5 5 5 6 6 4 4 5 5 5 5 5 4 5 4 5 4 3
6 6 6 6 5 4 3 4 5 5 4 4 4 5 5 6 7 7 6 6 6 7 7 6 7 6 5 5 5 5 5 6 6 5 5 5 4 4 4 4 4 4 4 4
6 6 6 6 6 5 5 5 5 5 5 5 5 5 5 6 6 7 6 6 6 7 7 7 7 6 5 5 5 4 5 5 6 5 4 4 4 4 4 4 4 4 4 4
5 5 5 5 5 5 4 4 4 4 4 5 5 5 5 6 7 7 7 7 6 7 6 6 6 6 5 5 5 4 4 4 4 4 4 4 4 4 4 4 4 4 4 3
2 2 2 2 3 3 3 3 3 3 3 4 4 5 6 6 7 7 7 6 7 7 7 6 7 6 6 6 6 4 4 4 4 4 4 5 5 4 4 4 4 4 3 3
2 2 1 1 1 1 2 1 2 2 3 3 4 5 6 6 6 7 6 6 6 6 6 7 6 6 5 5 6 4 4 4 4 4 4 4 4 4 4 4 4 4 3 3
2 2 2 1 1 1 1 1 2 3 3 3 4 5 6 7 6 6 6 6 6 6 6 8 5 5 5 5 6 4 4 4 4 4 4 4 4 4 4 4 4 4 3 3
2 2 1 1 1 1 2 2 2 3 3 4 4 5 6 6 6 6 6 6 6 8 6 5 4 6 7 7 5 4 5 5 5 4 4 4 4 4 4 4 4 4 3 3
1 1 1 1 0 1 2 2 3 3 3 4 5 5 6 6 5 5 6 5 5 8 7 5 7 9 10 6 4 4 5 5 5 5 4 4 4 4 4 4 4 4 3 3
1 1 1 1 1 1 2 3 4 3 4 5 5 5 6 5 5 5 5 8 9 10 6 7 10 10 10 5 4 4 4 5 5 5 5 4 4 4 4 4 4 4 3 3
1 1 1 1 1 2 3 4 4 4 5 4 5 6 5 4 5 6 6 7 9 9 6 7 9 10 7 4 4 4 4 5 5 5 5 4 4 4 4 4 4 4 3 3
1 1 1 1 2 2 2 3 3 4 4 5 5 5 5 5 6 6 6 7 8 8 7 5 6 6 5 4 5 5 4 5 5 5 5 4 5 5 4 4 5 4 3 3
1 1 1 1 2 2 3 3 3 4 5 5 6 6 6 6 6 6 7 6 6 6 5 5 5 5 5 5 5 5 4 4 4 5 4 4 4 4 4 5 4 3 3 3
Wind_Direction
260 266 253 248 243 226 223 233 249 264 272 283 294 303 306 307 311 315 319 324 327 327 326 326 327 328 327 327 329 328 325 324 317 311 301 292 289 289 288 284 279 265 261 258
261 250 253 259 252 242 238 241 248 264 274 279 292 297 300 303 306 310 315 321 323 323 322 323 325 326 326 325 326 325 325 321 323 321 313 308 306 307 295 287 287 283 270 259
260 263 271 255 239 227 226 228 235 249 261 283 291 295 299 302 303 307 312 314 315 316 317 318 320 323 322 322 322 325 330 329 328 326 327 315 309 302 300 299 296 286 280 268
267 259 244 251 183 215 227 239 233 246 265 277 288 299 296 290 295 303 307 306 308 311 313 314 316 318 316 318 321 322 322 324 327 330 328 324 317 314 310 303 292 288 280 276
232 253 268 262 211 199 218 250 232 240 256 271 288 293 284 290 296 300 302 302 302 305 305 308 312 315 315 317 321 321 321 322 324 322 320 323 322 315 311 305 301 295 287 276
220 243 253 264 155 174 207 254 221 228 249 266 277 282 298 316 305 301 302 301 302 303 302 303 310 314 313 313 314 315 313 310 310 309 308 310 310 309 302 298 296 296 289 278
227 242 260 251 145 161 214 264 182 217 236 244 246 269 302 308 301 298 300 301 302 298 297 300 308 309 307 308 307 311 312 306 303 303 302 300 302 303 301 300 298 298 291 284
211 229 245 156 159 199 239 340 212 228 237 249 263 281 293 295 296 298 300 298 300 296 296 299 303 302 301 304 307 311 310 304 301 301 302 300 300 300 300 299 296 297 293 290
208 227 264 169 199 223 247 254 259 252 258 262 272 281 288 290 292 295 297 297 296 293 295 298 300 299 297 303 308 310 310 309 308 307 304 301 302 305 305 303 298 298 298 290
239 248 243 229 237 243 245 258 267 266 266 266 274 282 288 289 289 292 294 294 295 294 294 297 300 300 300 307 306 304 306 308 308 305 306 306 302 298 296 293 291 295 298 295
242 253 260 244 236 239 246 253 260 264 268 270 273 279 283 285 286 289 290 292 289 286 288 293 299 301 303 307 307 302 303 307 307 304 301 305 303 299 293 289 281 283 288 292
231 225 222 239 230 232 244 253 258 267 273 273 271 276 281 282 285 288 289 289 285 284 286 292 296 297 301 305 303 300 300 304 305 302 298 297 302 308 300 282 289 282 279 283
245 235 236 255 251 240 245 253 262 264 267 274 277 277 279 282 286 287 287 286 284 285 287 290 293 294 299 303 300 295 294 299 302 301 296 293 294 297 305 313 301 291 292 295
232 232 243 245 244 239 244 255 261 265 267 271 279 282 282 284 287 285 286 289 289 288 288 288 291 292 299 301 297 294 293 293 294 294 295 290 287 287 288 294 303 309 313 306
230 229 235 240 239 242 249 250 254 261 272 277 279 283 285 286 286 288 292 295 293 289 289 290 290 292 302 299 294 293 291 290 292 293 292 290 286 285 285 286 288 296 307 309
217 221 225 229 234 237 243 248 255 267 275 279 285 289 289 287 287 291 294 296 292 291 293 290 289 295 301 295 291 289 289 292 292 291 290 291 288 284 285 284 284 287 293 297
200 215 220 226 229 233 241 249 256 266 274 278 287 294 295 294 294 295 299 298 292 289 289 286 290 297 296 290 286 284 285 288 289 287 285 287 288 284 282 280 280 284 289 291
212 217 214 221 228 232 244 253 259 266 272 282 289 291 292 292 293 297 302 304 300 296 295 294 297 300 297 293 289 284 281 282 284 284 286 288 290 290 285 279 279 284 293 295
171 182 198 209 214 218 232 248 262 273 282 286 288 290 291 292 293 296 299 297 294 295 301 309 309 303 299 297 295 284 281 283 286 287 287 290 291 289 289 283 280 284 286 280
139 142 147 152 162 208 238 264 279 284 292 294 293 294 295 298 299 298 296 291 287 291 301 304 303 299 297 296 294 285 281 280 281 283 285 284 284 286 287 286 281 281 275 268
134 132 127 114 72 12 315 297 294 298 303 299 292 293 296 299 301 299 296 296 302 308 306 303 300 298 299 299 295 286 281 278 278 280 280 280 281 281 282 282 282 278 271 265
117 121 117 107 84 0 338 329 316 307 306 304 301 299 300 301 303 299 287 286 299 308 306 297 296 297 300 299 289 282 278 277 276 275 275 275 275 276 279 280 280 277 270 263
96 102 104 100 68 338 335 334 324 313 309 306 304 303 301 299 298 296 296 300 304 306 303 294 295 299 301 298 286 279 276 274 272 271 271 271 271 271 274 274 272 271 265 255
87 74 55 32 17 349 333 330 326 319 312 306 305 304 301 299 296 289 290 298 304 303 299 295 298 300 302 294 284 277 273 270 268 268 267 266 266 267 268 268 266 265 262 250
71 58 43 20 358 335 327 324 322 321 319 315 314 311 304 296 292 298 299 298 301 303 300 298 300 301 298 286 279 274 271 266 264 265 263 261 263 264 264 263 260 258 252 243
22 12 352 341 330 321 318 318 318 319 319 316 315 315 313 307 301 299 298 298 299 299 298 295 295 295 287 279 274 270 267 268 269 265 260 262 262 263 263 260 257 251 247 237
28 13 354 349 347 338 327 321 316 313 312 309 308 310 311 310 307 306 304 301 301 299 296 293 290 286 281 277 273 267 263 262 261 260 258 258 260 259 259 258 254 245 237 228